Location: Newark
(40.2401°N, 1.4101°W)
Time: 02:49:03
(UTC+00:00)

Envisat - Visible Passes

Search period start: 17 October 2019 00:00
Search period end: 27 October 2019 00:00
Orbit: 764 x 766 km, 98.1° (Epoch: 16 October)

Date Brightness Start Highest point End Pass type
(mag) Time Alt. Az. Time Alt. Az. Time Alt. Az.
17 Oct 5.7 19:22:17 10° SW 19:25:54 20° W 19:29:32 10° NW visible
18 Oct 6.2 05:52:21 10° NE 05:55:37 17° E 05:58:51 10° SE visible
18 Oct 4.2 18:44:04 10° S 18:48:53 43° W 18:53:44 10° NNW visible
19 Oct 3.0 18:07:00 10° SSE 18:12:04 83° ENE 18:17:11 10° N visible
19 Oct 6.3 19:50:44 10° W 19:51:41 10° W 19:52:38 10° WNW visible
20 Oct 5.3 19:10:25 10° SSW 19:14:32 25° W 19:18:41 10° NW visible
21 Oct 6.4 05:41:53 10° ENE 05:44:13 13° E 05:46:33 10° ESE visible
21 Oct 3.7 18:32:37 10° S 18:37:35 56° W 18:42:35 10° NNW visible
22 Oct 3.0 17:55:49 10° SSE 18:00:50 66° ENE 18:05:53 10° N visible
22 Oct 6.1 19:37:44 10° WSW 19:40:18 14° W 19:42:52 10° WNW visible
23 Oct 4.9 18:58:44 10° SSW 19:03:12 31° W 19:07:42 10° NNW visible
24 Oct 3.3 18:21:15 10° S 18:26:18 71° WSW 18:31:24 10° NNW visible
25 Oct 3.1 17:44:42 10° SSE 17:49:36 51° ENE 17:54:32 10° N visible
25 Oct 5.7 19:25:32 10° SW 19:28:54 18° W 19:32:19 10° NW visible
26 Oct 6.1 05:55:07 10° NE 05:58:38 19° E 06:02:08 10° SE visible
26 Oct 4.4 18:47:08 10° SSW 18:51:53 40° W 18:56:39 10° NNW visible
